period_start,C,m1,H,J0,J1,J2,J3,J4,J5,JA,JB,JC,JD,JJ,JK,JN,#
2017-04-16 00:03:39,0.09,4.02,0.00,24.03,27.35,31.01,14.56,48.76,1019.95,2027.00,2196.63,2165.13,2479.24,600.05,595.91,35.41,0000 0000 0000 0000 000000
2017-04-16 00:08:41,0.05,4.02,0.00,24.01,27.35,30.90,14.52,48.77,1019.87,2027.00,2195.84,2164.83,2478.59,600.00,595.91,35.47,0000 0000 0000 0000 000000
2017-04-16 00:13:42,0.06,4.02,0.00,24.04,27.35,30.90,14.50,48.63,1019.63,2026.99,2195.00,2164.06,2477.98,600.13,595.89,35.52,0000 0000 0000 0000 000000
2017-04-16 00:18:43,0.07,4.03,0.00,24.05,27.35,30.97,14.49,48.70,1019.58,2026.99,2194.13,2163.76,2477.19,599.59,595.38,35.57,0000 0000 0000 0000 000000
2017-04-16 00:23:44,0.07,4.03,0.00,24.05,27.33,31.00,14.54,48.69,1019.56,2026.99,2193.22,2163.03,2476.58,600.00,595.62,35.62,0000 0000 0000 0000 000000
2017-04-16 00:28:45,0.07,4.03,0.00,24.07,27.33,31.03,14.56,48.63,1019.57,2026.99,2192.33,2162.54,2475.98,599.83,595.45,35.67,0000 0000 0000 0000 000000
2017-04-16 00:33:47,0.06,4.04,0.00,24.12,27.33,31.01,14.44,48.61,1019.57,2026.99,2191.49,2162.01,2475.15,599.99,595.51,35.72,0000 0000 0000 0000 000000
2017-04-16 00:38:48,0.07,4.04,0.00,24.51,27.35,30.94,14.40,48.63,1019.57,2026.99,2190.75,2161.43,2474.66,599.90,594.61,35.77,0000 0000 0000 0000 000000
2017-04-16 00:43:49,0.03,4.04,0.00,24.30,27.35,30.93,14.57,48.74,1019.58,2026.98,2189.98,2161.01,2474.01,600.46,595.62,35.82,0000 0000 0000 0000 000000
2017-04-16 00:48:51,0.08,4.05,0.00,24.23,27.35,31.05,14.48,48.77,1019.60,2026.99,2189.13,2160.47,2473.32,599.81,595.21,35.87,0000 0000 0000 0000 000000
2017-04-16 00:53:52,0.03,4.05,0.00,24.32,27.37,31.06,14.53,48.79,1019.79,2026.99,2188.67,2160.01,2472.98,599.81,595.07,35.92,0000 0000 0000 0000 000000
2017-04-16 00:58:53,0.05,4.05,0.00,24.22,27.37,31.09,14.44,48.71,1020.00,2026.98,2188.00,2159.76,2472.21,599.86,595.50,35.97,0000 0000 0000 0000 000000
2017-04-16 01:03:55,0.05,4.05,0.00,24.20,27.37,31.11,14.45,48.83,1020.02,2026.98,2187.25,2159.06,2471.98,600.19,595.86,36.02,0000 0000 0000 0000 000000
2017-04-16 01:08:56,0.05,4.06,0.00,24.17,27.37,31.01,14.47,48.77,1019.99,2026.98,2186.65,2158.90,2471.23,600.04,595.64,36.07,0000 0000 0000 0000 000000
2017-04-16 01:13:58,0.06,4.06,0.00,24.18,27.36,30.95,14.47,48.75,1020.01,2026.98,2185.95,2158.10,2470.79,599.72,595.42,36.12,0000 0000 0000 0000 000000
2017-04-16 01:18:59,0.04,4.06,0.00,24.22,27.35,31.01,14.50,48.81,1020.03,2026.98,2185.12,2157.97,2470.04,599.76,595.27,36.17,0000 0000 0000 0000 000000
2017-04-16 01:24:00,0.07,4.07,0.00,24.23,27.35,31.00,14.51,48.78,1020.03,2026.98,2184.55,2157.29,2469.79,600.46,596.01,36.22,0000 0000 0000 0000 000000
2017-04-16 01:29:01,0.02,4.07,0.00,24.28,27.35,30.97,14.51,48.74,1020.03,2026.99,2184.01,2157.00,2469.06,600.31,595.79,36.27,0000 0000 0000 0000 000000
2017-04-16 01:34:03,0.05,4.07,0.00,24.67,27.35,30.90,14.45,48.66,1020.03,2026.99,2183.39,2156.72,2468.83,600.15,594.98,36.32,0000 0000 0000 0000 000000
2017-04-16 01:39:04,0.05,4.07,0.00,24.34,27.35,30.90,14.55,48.91,1020.04,2026.98,2182.83,2156.04,2468.07,600.15,595.54,36.38,0000 0000 0000 0000 000000
2017-04-16 01:44:05,0.04,4.07,0.00,24.39,27.35,30.96,14.46,48.91,1020.05,2026.99,2182.04,2155.85,2467.66,599.58,594.92,36.43,0000 0000 0000 0000 000000
2017-04-16 01:49:07,0.07,4.08,0.00,24.45,27.36,31.00,14.44,48.75,1020.07,2026.99,2181.26,2155.07,2467.01,599.68,594.85,36.48,0000 0000 0000 0000 000000
2017-04-16 01:54:08,0.03,4.08,0.00,24.37,27.37,31.03,14.49,48.80,1020.05,2026.98,2180.77,2154.97,2466.56,599.98,595.26,36.53,0000 0000 0000 0000 000000
2017-04-16 01:59:09,0.06,4.08,0.00,24.34,27.36,31.09,14.45,48.91,1020.04,2026.97,2179.98,2154.24,2466.01,599.86,595.21,36.58,0000 0000 0000 0000 000000
2017-04-16 02:04:10,0.05,4.09,0.00,24.33,27.35,31.01,14.42,48.78,1020.04,2026.97,2179.15,2154.00,2465.46,600.38,595.80,36.63,0000 0000 0000 0000 000000
2017-04-16 02:09:12,0.05,4.09,0.00,24.36,27.35,31.02,14.48,48.72,1020.04,2026.99,2178.74,2153.54,2465.01,599.85,595.23,36.68,0000 0000 0000 0000 000000
2017-04-16 02:14:13,0.04,4.09,0.00,24.39,27.35,31.02,14.51,48.97,1020.04,2026.99,2178.03,2153.01,2464.43,599.96,595.21,36.73,0000 0000 0000 0000 000000
2017-04-16 02:19:14,0.03,4.09,0.00,24.72,27.35,30.89,14.47,48.63,1020.04,2026.97,2177.37,2152.86,2464.00,600.05,594.57,36.78,0000 0000 0000 0000 000000
2017-04-16 02:24:16,0.07,4.10,0.00,24.44,27.35,30.86,14.44,48.77,1020.05,2026.98,2176.74,2152.11,2463.37,600.23,595.38,36.83,0000 0000 0000 0000 000000
2017-04-16 02:29:17,0.02,4.10,0.00,24.46,27.35,30.94,14.53,48.94,1020.06,2026.97,2176.01,2151.96,2462.96,600.58,595.74,36.88,0000 0000 0000 0000 000000
2017-04-16 02:34:18,0.09,4.10,0.00,24.54,27.35,30.96,14.45,48.95,1020.10,2026.98,2175.32,2151.29,2462.23,599.57,594.64,36.93,0000 0000 0000 0000 000000
2017-04-16 02:39:20,0.01,4.11,0.00,24.61,27.35,30.96,14.41,48.85,1020.18,2026.98,2174.94,2151.00,2461.95,599.85,594.74,36.98,0000 0000 0000 0000 000000
2017-04-16 02:44:21,0.08,4.11,0.00,24.70,27.35,30.91,14.41,48.78,1020.37,2026.97,2174.13,2150.57,2461.16,600.01,594.78,37.03,0000 0000 0000 0000 000000
2017-04-16 02:49:22,0.04,4.11,0.00,24.64,27.35,30.86,14.43,48.91,1020.44,2026.96,2173.52,2150.01,2460.89,599.60,594.56,37.08,0000 0000 0000 0000 000000
2017-04-16 02:54:24,0.03,4.11,0.00,24.62,27.35,30.86,14.49,48.88,1020.40,2026.95,2172.92,2149.91,2460.12,600.09,595.02,37.13,0000 0000 0000 0000 000000
2017-04-16 02:59:25,0.07,4.12,0.00,24.62,27.35,30.84,14.44,48.87,1020.48,2026.97,2172.14,2149.17,2459.94,600.03,595.17,37.18,0000 0000 0000 0000 000000
2017-04-16 03:04:26,0.03,4.12,0.00,24.53,27.35,30.80,14.39,48.87,1020.51,2026.99,2171.81,2149.00,2459.25,599.68,594.93,37.23,0000 0000 0000 0000 000000
2017-04-16 03:09:28,0.05,4.12,0.00,24.48,27.35,30.79,14.52,48.95,1020.52,2026.98,2171.04,2148.63,2458.98,599.93,595.34,37.29,0000 0000 0000 0000 000000
2017-04-16 03:14:29,0.07,4.12,0.00,24.47,27.34,30.82,14.48,48.98,1020.52,2026.98,2170.34,2148.03,2458.31,599.70,595.18,37.34,0000 0000 0000 0000 000000
2017-04-16 03:19:30,0.01,4.13,0.00,24.49,27.32,30.82,14.38,48.81,1020.52,2026.98,2169.87,2147.97,2457.98,599.52,594.90,37.39,0000 0000 0000 0000 000000
2017-04-16 03:24:32,0.08,4.13,0.00,24.47,27.32,30.77,14.48,48.72,1020.52,2026.99,2169.07,2147.37,2457.41,600.37,595.67,37.44,0000 0000 0000 0000 000000
2017-04-16 03:29:33,0.03,4.13,0.00,24.72,27.32,30.74,14.44,48.83,1020.52,2026.99,2168.60,2147.01,2456.98,600.13,594.94,37.49,0000 0000 0000 0000 000000
2017-04-16 03:34:34,0.06,4.13,0.00,24.69,27.33,30.77,14.46,48.94,1020.52,2026.98,2167.96,2146.54,2456.25,599.74,594.67,37.54,0000 0000 0000 0000 000000
2017-04-16 03:39:35,0.04,4.14,0.00,24.41,27.33,30.83,14.48,48.98,1020.52,2026.98,2167.12,2146.02,2455.98,600.00,595.57,37.59,0000 0000 0000 0000 000000
2017-04-16 03:44:37,0.05,4.14,0.00,24.56,27.33,30.88,14.46,48.98,1020.52,2026.99,2166.52,2145.91,2455.30,600.04,595.22,37.64,0000 0000 0000 0000 000000
2017-04-16 03:49:38,0.04,4.14,0.00,24.68,27.35,30.90,14.52,48.93,1020.52,2026.98,2165.98,2145.17,2454.97,600.20,595.31,37.69,0000 0000 0000 0000 000000
2017-04-16 03:54:40,0.05,4.14,0.00,24.75,27.35,30.89,14.46,48.87,1020.52,2026.98,2165.24,2144.99,2454.26,599.75,594.55,37.74,0000 0000 0000 0000 000000
2017-04-16 03:59:41,0.05,4.15,0.00,24.77,27.35,30.79,14.43,49.03,1020.52,2026.98,2164.68,2144.55,2453.95,599.90,594.66,37.79,0000 0000 0000 0000 000000
2017-04-16 04:04:42,0.05,4.15,0.00,24.76,27.35,30.76,14.39,48.83,1020.52,2026.98,2164.00,2144.02,2453.18,599.92,594.76,37.84,0000 0000 0000 0000 000000
2017-04-16 04:09:44,0.04,4.15,0.00,24.74,27.35,30.76,14.44,48.92,1020.53,2026.98,2163.17,2143.83,2452.96,600.11,594.87,37.89,0000 0000 0000 0000 000000
2017-04-16 04:14:45,0.07,4.15,0.00,24.73,27.34,30.76,14.41,48.92,1020.52,2026.97,2162.73,2143.09,2452.19,599.59,594.42,37.94,0000 0000 0000 0000 000000
2017-04-16 04:19:46,0.02,4.16,0.00,24.73,27.33,30.78,14.42,48.91,1020.54,2026.99,2162.01,2142.99,2451.98,600.12,594.98,37.99,0000 0000 0000 0000 000000
2017-04-16 04:24:47,0.07,4.16,0.00,24.75,27.32,30.74,14.41,48.81,1020.54,2026.99,2161.40,2142.51,2451.36,600.03,594.86,38.04,0000 0000 0000 0000 000000
2017-04-16 04:29:49,0.02,4.16,0.00,24.78,27.32,30.75,14.48,48.78,1020.57,2026.99,2160.98,2142.02,2451.00,600.12,595.09,38.09,0000 0000 0000 0000 000000
2017-04-16 04:34:50,0.05,4.16,0.00,24.77,27.32,30.73,14.41,48.75,1020.58,2026.99,2160.23,2141.95,2450.65,600.04,594.84,38.14,0000 0000 0000 0000 000000
2017-04-16 04:39:52,0.06,4.17,0.00,24.76,27.31,30.71,14.39,48.71,1020.66,2026.99,2159.77,2141.30,2450.02,599.75,594.63,38.20,0000 0000 0000 0000 000000
2017-04-16 04:44:53,0.03,4.17,0.00,24.77,27.30,30.69,14.38,48.82,1020.70,2026.99,2159.03,2141.01,2449.66,599.67,594.55,38.25,0000 0000 0000 0000 000000
2017-04-16 04:49:54,0.05,4.17,0.00,24.80,27.30,30.71,14.47,48.87,1020.60,2026.99,2158.40,2140.83,2449.03,600.08,594.77,38.30,0000 0000 0000 0000 000000
2017-04-16 04:54:55,0.04,4.17,0.00,24.85,27.29,30.66,14.47,48.90,1020.72,2027.00,2157.91,2140.08,2448.86,600.06,594.78,38.35,0000 0000 0000 0000 000000
2017-04-16 04:59:57,0.04,4.18,0.00,24.82,27.27,30.65,14.51,48.87,1020.93,2027.00,2157.09,2139.99,2448.11,600.27,595.17,38.40,0000 0000 0000 0000 000000
2017-04-16 05:04:58,0.08,4.18,0.00,24.82,27.27,30.66,14.44,48.93,1020.97,2027.00,2156.41,2139.36,2447.69,599.86,594.80,38.45,0000 0000 0000 0000 000000
2017-04-16 05:10:00,0.04,4.18,0.00,24.82,27.27,30.66,14.42,48.90,1020.97,2027.00,2155.72,2138.99,2447.02,600.06,595.06,38.50,0000 0000 0000 0000 000000
2017-04-16 05:15:01,0.07,4.19,0.00,24.80,27.27,30.65,14.33,48.92,1020.98,2027.00,2155.00,2138.46,2446.48,599.98,594.94,38.55,0000 0000 0000 0000 000000
2017-04-16 05:20:02,0.04,4.19,0.00,24.82,27.26,30.64,14.42,48.98,1020.97,2027.00,2154.23,2138.00,2445.97,599.84,594.74,38.60,0000 0000 0000 0000 000000
2017-04-16 05:25:03,0.07,4.19,0.00,24.82,27.25,30.64,14.42,48.96,1020.96,2027.01,2153.63,2137.68,2445.25,599.87,594.94,38.65,0000 0000 0000 0000 000000
2017-04-16 05:30:04,0.03,4.19,0.00,24.83,27.25,30.62,14.47,49.03,1020.98,2027.01,2152.99,2137.05,2444.97,599.87,594.81,38.70,0000 0000 0000 0000 000000
2017-04-16 05:35:06,0.05,4.20,0.00,24.85,27.25,30.62,14.49,48.94,1020.95,2027.03,2152.28,2136.96,2444.32,600.18,595.17,38.75,0000 0000 0000 0000 000000
2017-04-16 05:40:07,0.05,4.20,0.00,24.85,27.25,30.61,14.45,48.97,1020.97,2027.04,2151.93,2136.26,2443.99,600.31,595.18,38.80,0000 0000 0000 0000 000000
2017-04-16 05:45:08,0.05,4.20,0.00,24.84,27.25,30.59,14.47,48.98,1020.99,2027.04,2151.10,2136.00,2443.50,600.08,595.18,38.85,0000 0000 0000 0000 000000
2017-04-16 05:50:10,0.03,4.20,0.00,24.88,27.24,30.57,14.38,48.92,1021.00,2027.07,2150.79,2135.80,2443.01,599.62,594.52,38.90,0000 0000 0000 0000 000000
2017-04-16 05:55:11,0.06,4.21,0.00,24.87,27.23,30.56,14.49,49.05,1021.01,2027.07,2150.04,2135.10,2442.64,600.05,594.89,38.95,0000 0000 0000 0000 000000
2017-04-16 06:00:12,0.04,4.21,0.00,24.86,27.22,30.59,14.42,49.02,1021.01,2027.09,2149.55,2134.99,2442.02,599.70,594.61,39.00,0000 0000 0000 0000 000000
2017-04-16 06:05:13,0.06,4.21,0.00,24.86,27.22,30.58,14.40,48.98,1021.01,2027.10,2149.01,2134.42,2441.74,599.79,594.75,39.06,0000 0000 0000 0000 000000
2017-04-16 06:10:15,0.05,4.22,0.00,24.88,27.22,30.56,14.44,49.01,1020.99,2027.12,2148.34,2134.01,2441.07,600.00,594.76,39.11,0000 0000 0000 0000 000000
2017-04-16 06:15:16,0.01,4.22,0.00,24.87,27.22,30.54,14.45,48.94,1020.91,2027.18,2147.91,2133.91,2440.88,600.29,595.07,39.16,0000 0000 0000 0000 000000
2017-04-16 06:20:17,0.10,4.22,0.00,24.87,27.21,30.53,14.43,49.04,1020.84,2027.24,2147.09,2133.15,2440.10,600.21,594.97,39.21,0000 0000 0000 0000 000000
2017-04-16 06:25:19,0.06,4.22,0.00,24.87,27.20,30.55,14.51,48.97,1020.86,2027.52,2146.72,2133.00,2439.97,600.16,594.92,39.26,0000 0000 0000 0000 000000
2017-04-16 06:30:20,0.05,4.23,0.00,24.87,27.20,30.54,14.44,48.90,1020.94,2027.64,2146.02,2132.84,2439.36,599.89,594.66,39.31,0000 0000 0000 0000 000000
2017-04-16 06:35:21,0.04,4.23,0.00,24.87,27.20,30.52,14.36,48.79,1020.87,2027.59,2145.40,2132.10,2438.98,599.85,594.70,39.36,0000 0000 0000 0000 000000
2017-04-16 06:40:23,0.05,4.23,0.00,24.88,27.20,30.51,14.40,48.87,1020.90,2027.72,2144.96,2131.99,2438.42,599.83,594.57,39.41,0000 0000 0000 0000 000000
2017-04-16 06:45:24,0.05,4.23,0.00,24.88,27.20,30.49,14.36,48.79,1021.00,2027.62,2144.18,2131.40,2438.01,599.75,594.60,39.46,0000 0000 0000 0000 000000
2017-04-16 06:50:25,0.04,4.24,0.00,24.90,27.20,30.54,14.40,48.78,1021.01,2027.52,2143.71,2131.01,2437.41,599.97,594.82,39.51,0000 0000 0000 0000 000000
2017-04-16 06:55:26,0.03,4.24,0.00,24.92,27.19,30.53,14.46,48.85,1021.01,2027.58,2143.03,2130.84,2437.01,599.97,594.73,39.56,0000 0000 0000 0000 000000
2017-04-16 07:00:27,0.06,4.24,0.00,24.91,27.18,30.50,14.40,48.96,1021.01,2027.60,2142.44,2130.10,2436.62,600.04,594.82,39.61,0000 0000 0000 0000 000000
2017-04-16 07:05:29,0.00,4.24,0.00,24.90,27.17,30.50,14.45,48.87,1021.01,2027.55,2141.91,2129.98,2436.01,600.28,595.12,39.66,0000 0000 0000 0000 000000
2017-04-16 07:10:30,0.10,4.25,0.00,24.89,27.17,30.47,14.53,48.87,1021.01,2027.57,2141.11,2129.44,2435.67,600.10,594.97,39.71,0000 0000 0000 0000 000000
2017-04-16 07:15:32,0.02,4.25,0.00,24.89,27.17,30.47,14.40,48.83,1021.01,2027.49,2140.61,2129.01,2435.03,600.00,594.82,39.76,0000 0000 0000 0000 000000
2017-04-16 07:20:33,0.06,4.25,0.00,24.91,27.17,30.46,14.43,48.89,1021.01,2027.60,2139.99,2128.76,2434.62,600.04,594.79,39.81,0000 0000 0000 0000 000000
2017-04-16 07:25:34,0.06,4.26,0.00,24.90,27.17,30.51,14.40,48.87,1021.01,2027.63,2139.29,2128.06,2434.02,600.02,594.73,39.86,0000 0000 0000 0000 000000
2017-04-16 07:30:35,0.03,4.26,0.00,24.91,27.17,30.49,14.45,48.96,1021.01,2027.64,2138.86,2127.99,2433.83,599.84,594.66,39.91,0000 0000 0000 0000 000000
2017-04-16 07:35:37,0.08,4.26,0.00,24.92,27.15,30.47,14.44,48.88,1021.01,2027.86,2138.07,2127.64,2433.09,599.98,594.74,39.96,0000 0000 0000 0000 000000
2017-04-16 07:40:38,0.04,4.26,0.00,24.91,27.15,30.45,14.44,48.95,1021.02,2027.90,2137.68,2127.06,2432.94,600.03,594.80,40.02,0000 0000 0000 0000 000000
2017-04-16 07:45:39,0.04,4.27,0.00,24.89,27.15,30.48,14.50,49.02,1021.02,2027.91,2137.01,2126.95,2432.20,599.98,594.63,40.07,0000 0000 0000 0000 000000
2017-04-16 07:50:41,0.06,4.27,0.00,24.90,27.15,30.47,14.44,48.96,1021.03,2027.94,2136.22,2126.27,2431.98,600.01,594.83,40.12,0000 0000 0000 0000 000000
2017-04-16 07:55:42,0.05,4.27,0.00,24.91,27.15,30.45,14.36,48.91,1021.03,2027.96,2135.66,2126.00,2431.28,599.69,594.49,40.17,0000 0000 0000 0000 000000
2017-04-16 08:00:43,0.04,4.27,0.00,24.91,27.13,30.45,14.48,48.91,1021.04,2027.96,2135.00,2125.69,2430.98,600.44,595.07,40.22,0000 0000 0000 0000 000000
2017-04-16 08:05:45,0.07,4.28,0.00,24.90,27.12,30.44,14.45,48.92,1021.03,2027.97,2134.21,2125.02,2430.33,600.12,595.06,40.27,0000 0000 0000 0000 000000
2017-04-16 08:10:46,0.09,4.28,0.00,24.88,27.12,30.44,14.45,48.75,1021.04,2027.98,2133.22,2124.55,2429.61,599.79,594.68,40.32,0000 0000 0000 0000 000000
2017-04-16 08:15:47,0.07,4.29,0.00,24.89,27.12,30.43,14.35,48.83,1021.07,2027.98,2131.98,2123.88,2428.73,599.67,594.47,40.37,0000 0000 0000 0000 000000
2017-04-16 08:20:48,0.09,4.29,0.00,24.89,27.11,30.41,14.47,48.84,1021.17,2027.98,2130.94,2123.07,2427.98,600.02,594.93,40.42,0000 0000 0000 0000 000000
2017-04-16 08:25:50,0.07,4.29,0.00,24.91,27.10,30.40,14.37,48.87,1021.25,2027.99,2130.02,2122.68,2427.17,600.02,594.81,40.47,0000 0000 0000 0000 000000
2017-04-16 08:30:51,0.06,4.30,0.00,24.92,27.10,30.40,14.35,48.79,1021.43,2027.99,2129.20,2122.03,2426.80,599.77,594.78,40.52,0000 0000 0000 0000 000000
2017-04-16 08:35:52,0.04,4.30,0.00,24.92,27.10,30.41,14.44,48.87,1021.47,2027.99,2128.63,2121.96,2426.05,599.98,594.97,40.57,0000 0000 0000 0000 000000
2017-04-16 08:40:54,0.06,4.30,0.00,24.92,27.09,30.42,14.42,48.73,1021.48,2027.99,2128.00,2121.33,2425.81,600.04,595.07,40.62,0000 0000 0000 0000 000000
2017-04-16 08:45:55,0.05,4.31,0.00,24.92,27.07,30.39,14.48,48.77,1021.50,2027.99,2127.16,2121.00,2425.06,600.15,595.30,40.67,0000 0000 0000 0000 000000
2017-04-16 08:50:56,0.05,4.31,0.00,24.93,27.07,30.40,14.41,48.73,1021.50,2027.99,2126.59,2120.71,2424.78,599.94,594.94,40.72,0000 0000 0000 0000 000000
2017-04-16 08:55:57,0.05,4.31,0.00,24.93,27.07,30.36,14.32,48.80,1021.50,2027.99,2125.98,2120.03,2424.04,599.80,594.80,40.77,0000 0000 0000 0000 000000
2017-04-16 09:00:59,0.03,4.31,0.00,24.93,27.07,30.38,14.46,48.81,1021.49,2027.99,2125.18,2119.99,2423.89,599.89,594.96,40.83,0000 0000 0000 0000 000000
2017-04-16 09:06:00,0.08,4.32,0.00,24.93,27.05,30.39,14.45,48.92,1021.50,2027.99,2124.60,2119.34,2423.10,600.23,595.24,40.88,0000 0000 0000 0000 000000
2017-04-16 09:11:01,0.02,4.32,0.00,24.92,27.05,30.37,14.40,48.84,1021.50,2027.99,2123.99,2119.00,2422.83,600.05,595.09,40.93,0000 0000 0000 0000 000000
2017-04-16 09:16:03,0.06,4.32,0.00,24.91,27.05,30.36,14.43,48.81,1021.50,2027.99,2123.17,2118.81,2422.09,600.08,595.06,40.98,0000 0000 0000 0000 000000
2017-04-16 09:21:04,0.03,4.32,0.00,24.92,27.05,30.41,14.39,48.73,1021.50,2028.00,2122.92,2118.14,2421.94,599.81,594.86,41.03,0000 0000 0000 0000 000000
2017-04-16 09:26:05,0.05,4.33,0.00,24.90,27.05,30.36,14.45,48.83,1021.50,2028.01,2122.15,2118.00,2421.27,600.14,595.30,41.08,0000 0000 0000 0000 000000
2017-04-16 09:31:06,0.04,4.33,0.00,24.89,27.04,30.35,14.41,48.87,1021.50,2028.00,2121.66,2117.74,2420.99,599.74,594.81,41.13,0000 0000 0000 0000 000000
2017-04-16 09:36:07,0.06,4.33,0.00,24.89,27.03,30.39,14.44,48.87,1021.50,2028.00,2121.01,2117.05,2420.29,599.85,594.92,41.18,0000 0000 0000 0000 000000
2017-04-16 09:41:08,0.03,4.33,0.00,24.87,27.02,30.36,14.39,48.95,1021.50,2028.02,2120.26,2116.98,2419.99,600.04,595.32,41.23,0000 0000 0000 0000 000000
2017-04-16 09:46:10,0.07,4.34,0.00,24.89,27.02,30.36,14.40,48.74,1021.50,2028.01,2119.82,2116.33,2419.28,599.81,594.89,41.28,0000 0000 0000 0000 000000
2017-04-16 09:51:11,0.03,4.34,0.00,24.86,27.02,30.38,14.48,48.88,1021.50,2028.03,2119.06,2116.01,2418.99,599.90,595.05,41.33,0000 0000 0000 0000 000000
2017-04-16 09:56:12,0.06,4.34,0.00,24.86,27.02,30.38,14.42,48.78,1021.50,2028.03,2118.43,2115.83,2418.39,600.12,595.16,41.38,0000 0000 0000 0000 000000
2017-04-16 10:01:13,0.05,4.35,0.00,24.89,27.02,30.34,14.38,48.80,1021.50,2028.02,2117.80,2115.09,2417.93,599.89,594.92,41.43,0000 0000 0000 0000 000000
2017-04-16 10:06:15,0.05,4.35,0.00,24.88,27.01,30.37,14.41,48.77,1021.50,2028.02,2117.04,2114.90,2417.12,599.78,594.91,41.48,0000 0000 0000 0000 000000
2017-04-16 10:11:16,0.07,4.35,0.00,24.87,27.00,30.38,14.50,48.84,1021.50,2028.02,2116.29,2114.21,2416.88,599.98,595.10,41.53,0000 0000 0000 0000 000000
2017-04-16 10:16:17,0.03,4.35,0.00,24.85,27.00,30.37,14.37,48.80,1021.50,2028.02,2115.81,2114.00,2416.10,599.69,594.96,41.58,0000 0000 0000 0000 000000
2017-04-16 10:21:19,0.04,4.36,0.00,24.86,27.00,30.38,14.57,48.90,1021.50,2028.04,2115.06,2113.73,2415.98,600.32,595.38,41.63,0000 0000 0000 0000 000000
2017-04-16 10:26:20,0.08,4.36,0.00,24.87,27.00,30.36,14.51,48.78,1021.51,2028.05,2114.44,2113.06,2415.31,600.26,595.41,41.68,0000 0000 0000 0000 000000
2017-04-16 10:31:21,0.01,4.36,0.00,24.87,27.00,30.35,14.38,48.83,1021.51,2028.05,2113.95,2112.99,2414.96,599.76,594.90,41.73,0000 0000 0000 0000 000000
2017-04-16 10:36:22,0.08,4.36,0.00,24.88,27.00,30.37,14.39,48.69,1021.51,2028.03,2113.13,2112.56,2414.30,599.95,595.14,41.79,0000 0000 0000 0000 000000
2017-04-16 10:41:23,0.04,4.37,0.00,24.86,27.00,30.35,14.48,48.92,1021.50,2028.05,2112.70,2112.03,2413.99,600.12,595.29,41.84,0000 0000 0000 0000 000000
2017-04-16 10:46:25,0.03,4.37,0.00,24.84,27.00,30.34,14.33,48.90,1021.50,2028.04,2112.01,2111.96,2413.44,599.85,594.99,41.89,0000 0000 0000 0000 000000
2017-04-16 10:51:26,0.07,4.37,0.00,24.86,26.99,30.36,14.39,48.84,1021.50,2028.05,2111.26,2111.35,2413.00,599.96,595.10,41.94,0000 0000 0000 0000 000000
2017-04-16 10:56:28,0.03,4.37,0.00,24.85,26.98,30.35,14.40,48.76,1021.50,2028.09,2110.99,2111.01,2412.54,599.71,594.75,41.99,0000 0000 0000 0000 000000
2017-04-16 11:01:29,0.03,4.38,0.00,24.83,26.98,30.37,14.39,48.78,1021.50,2028.08,2110.25,2111.00,2412.01,600.11,595.40,42.04,0000 0000 0000 0000 000000
2017-04-16 11:06:31,0.05,4.38,0.00,24.82,26.97,30.36,14.37,48.95,1021.50,2028.13,2109.74,2110.79,2411.74,599.73,595.03,42.09,0000 0000 0000 0000 000000
2017-04-16 11:11:32,0.07,4.38,0.00,24.81,26.97,30.39,14.38,48.87,1021.50,2028.21,2109.03,2110.08,2411.04,599.87,595.13,42.14,0000 0000 0000 0000 000000
2017-04-16 11:16:33,0.03,4.38,0.00,24.81,26.97,30.35,14.44,48.91,1021.50,2028.26,2108.36,2109.99,2410.80,600.14,595.41,42.19,0000 0000 0000 0000 000000
2017-04-16 11:21:34,0.06,4.39,0.00,24.81,26.97,30.35,14.42,48.88,1021.50,2028.19,2107.75,2109.61,2410.05,599.89,594.96,42.24,0000 0000 0000 0000 000000
2017-04-16 11:26:35,0.04,4.39,0.00,24.83,26.97,30.37,14.47,48.95,1021.51,2028.16,2107.01,2109.03,2409.71,600.01,595.23,42.29,0000 0000 0000 0000 000000
2017-04-16 11:31:36,0.05,4.39,0.00,24.80,26.97,30.37,14.39,48.74,1021.51,2028.14,2106.17,2108.97,2409.03,599.85,595.11,42.34,0000 0000 0000 0000 000000
2017-04-16 11:36:37,0.08,4.39,0.00,24.84,26.97,30.39,14.51,48.83,1021.51,2028.26,2105.65,2108.41,2408.82,600.52,595.66,42.39,0000 0000 0000 0000 000000
2017-04-16 11:41:39,0.03,4.40,0.00,24.86,26.97,30.39,14.46,48.87,1021.50,2028.30,2104.91,2108.01,2408.06,600.05,595.20,42.44,0000 0000 0000 0000 000000
2017-04-16 11:46:40,0.05,4.40,0.00,24.83,26.97,30.36,14.43,48.84,1021.50,2028.33,2104.06,2107.92,2407.72,599.79,595.02,42.49,0000 0000 0000 0000 000000
2017-04-16 11:51:41,0.07,4.40,0.00,24.81,26.97,30.35,14.43,48.83,1021.50,2028.33,2103.30,2107.15,2407.02,600.02,595.28,42.54,0000 0000 0000 0000 000000
2017-04-16 11:56:43,0.07,4.41,0.00,24.80,26.97,30.36,14.51,48.85,1021.50,2028.52,2102.45,2106.99,2406.49,600.45,595.59,42.59,0000 0000 0000 0000 000000
2017-04-16 12:01:44,0.05,4.41,0.00,24.79,26.97,30.39,14.46,48.89,1021.50,2028.41,2101.63,2106.62,2405.99,600.19,595.47,42.64,0000 0000 0000 0000 000000
2017-04-16 12:06:45,0.08,4.42,0.00,24.80,26.97,30.37,14.44,48.90,1021.50,2028.58,2100.84,2106.04,2405.30,599.79,595.01,42.69,0000 0000 0000 0000 000000
2017-04-16 12:11:46,0.02,4.42,0.00,24.77,26.97,30.38,14.41,48.85,1021.50,2028.52,2099.98,2105.99,2404.86,599.75,595.01,42.75,0000 0000 0000 0000 000000
2017-04-16 12:16:47,0.11,4.42,0.00,24.79,26.97,30.38,14.44,48.83,1021.50,2028.64,2099.11,2105.53,2404.10,599.89,595.18,42.80,0000 0000 0000 0000 000000
2017-04-16 12:21:49,0.06,4.43,0.00,24.77,26.96,30.38,14.48,48.83,1021.50,2028.81,2098.37,2105.02,2403.84,600.04,595.42,42.85,0000 0000 0000 0000 000000
2017-04-16 12:26:50,0.04,4.43,0.00,24.81,26.96,30.39,14.46,48.88,1021.50,2028.76,2097.57,2104.96,2403.06,599.87,595.18,42.90,0000 0000 0000 0000 000000
2017-04-16 12:31:51,0.07,4.43,0.00,24.77,26.96,30.38,14.38,48.88,1021.50,2028.69,2096.72,2104.24,2402.54,599.55,594.95,42.95,0000 0000 0000 0000 000000
2017-04-16 12:36:53,0.03,4.43,0.00,24.79,26.96,30.39,14.43,48.85,1021.50,2028.65,2095.93,2103.99,2402.01,600.05,595.42,43.00,0000 0000 0000 0000 000000
2017-04-16 12:41:54,0.08,4.44,0.00,24.76,26.95,30.42,14.52,48.88,1021.50,2028.60,2095.08,2103.63,2401.28,600.18,595.71,43.05,0000 0000 0000 0000 000000
2017-04-16 12:46:55,0.04,4.44,0.00,24.78,26.95,30.40,14.43,48.91,1021.49,2028.50,2094.21,2103.03,2400.86,599.94,595.24,43.10,0000 0000 0000 0000 000000
2017-04-16 12:51:56,0.07,4.44,0.00,24.76,26.95,30.40,14.45,48.77,1021.47,2028.50,2093.37,2102.88,2400.10,599.99,595.34,43.15,0000 0000 0000 0000 000000
2017-04-16 12:56:57,0.08,4.45,0.00,24.75,26.95,30.41,14.40,48.79,1021.48,2028.71,2092.69,2102.22,2399.87,599.77,595.11,43.20,0000 0000 0000 0000 000000